CW8164 Weather Reports


Display with metric or nautical units.
time (UTC)temp
F
wind
direction
speed
MPH
gust
MPH
rain 1hr
in
rain 24hr
in
rain mn
in
humidity
%
barometer
mb
20260508191904 59 55 0.0 2.0 0.00 0.00 0.00 62 1022.1
20260508191404 59 209 0.0 3.0 0.00 0.00 0.00 65 1022.1
20260508190904 58 322 0.0 3.0 0.00 0.00 0.00 65 1022.1
20260508185905 58 29 0.0 0.0 0.00 0.00 0.00 65 1022.0
20260508184907 57 18 0.0 2.0 0.00 0.00 0.00 66 1022.1
20260508183903 57 267 0.0 2.0 0.00 0.00 0.00 65 1022.0
20260508182903 56 309 0.0 0.0 0.00 0.00 0.00 66 1022.0
20260508182404 56 270 0.0 0.0 0.00 0.00 0.00 68 1021.9
20260508181903 56 296 0.0 1.0 0.00 0.00 0.00 69 1021.9
20260508181404 56 240 0.0 2.0 0.00 0.00 0.00 67 1021.8
20260508180904 56 25 0.0 2.0 0.00 0.00 0.00 68 1021.8
20260508180404 56 221 0.0 0.0 0.00 0.00 0.00 68 1021.9
20260508175904 57 251 0.0 0.0 0.00 0.00 0.00 67 1021.9
20260508175403 57 73 0.0 3.0 0.00 0.00 0.00 70 1021.8
20260508174904 56 174 0.0 3.0 0.00 0.00 0.00 73 1021.7
20260508174404 55 2 0.0 2.0 0.00 0.00 0.00 70 1021.7
20260508173903 55 92 1.0 2.0 0.00 0.00 0.00 70 1021.6
20260508173404 54 234 0.0 2.0 0.00 0.00 0.00 72 1021.5
20260508172904 55 123 0.0 2.0 0.00 0.00 0.00 71 1021.5
20260508172403 55 225 0.0 3.0 0.00 0.00 0.00 70 1021.4
20260508171903 55 269 0.0 3.0 0.00 0.00 0.00 72 1021.4
20260508170903 54 72 0.0 2.0 0.00 0.00 0.00 73 1021.1
20260508165404 54 96 1.0 5.0 0.00 0.00 0.00 74 1020.8
20260508164904 54 121 0.0 3.0 0.00 0.00 0.00 77 1021.0
20260508164404 53 234 1.0 5.0 0.00 0.00 0.00 75 1021.1
20260508163404 53 95 1.0 3.0 0.00 0.00 0.00 76 1021.1
20260508162903 53 73 1.0 5.0 0.00 0.00 0.00 76 1020.8
20260508161903 53 74 2.0 7.0 0.00 0.00 0.00 80 1020.8
20260508161404 53 108 2.0 7.0 0.00 0.00 0.00 80 1020.8
20260508160904 53 82 2.0 7.0 0.00 0.00 0.00 80 1020.8
20260508160404 52 77 3.0 6.0 0.00 0.00 0.00 80 1020.8
20260508155904 52 68 2.0 6.0 0.00 0.00 0.00 80 1020.5
20260508155403 52 90 2.0 8.0 0.00 0.00 0.00 80 1020.5
20260508154904 52 120 4.0 8.0 0.00 0.00 0.00 78 1020.4
20260508153904 52 23 1.0 3.0 0.00 0.00 0.00 77 1020.6
20260508152904 52 68 2.0 5.0 0.00 0.00 0.00 78 1020.8
20260508152403 51 17 0.0 3.0 0.00 0.00 0.00 80 1020.8
20260508151903 51 46 0.0 3.0 0.00 0.00 0.00 81 1020.8
20260508151404 51 54 1.0 3.0 0.00 0.00 0.00 81 1020.9
20260508150903 50 33 0.0 3.0 0.00 0.00 0.00 83 1020.9
20260508145404 49 34 0.0 1.0 0.00 0.00 0.00 88 1021.1
20260508144903 48 60 0.0 0.0 0.00 0.00 0.00 90 1021.1
20260508144404 47 51 0.0 0.0 0.00 0.00 0.00 92 1021.1
20260508143903 46 51 0.0 0.0 0.00 0.00 0.00 92 1021.1
20260508143404 46 51 0.0 0.0 0.00 0.00 0.00 92 1021.1
20260508142903 46 51 0.0 0.0 0.00 0.00 0.00 93 1021.0
20260508142403 45 51 0.0 0.0 0.00 0.00 0.00 93 1020.9
20260508141904 45 51 0.0 0.0 0.00 0.00 0.00 93 1020.7
20260508141404 44 51 0.0 0.0 0.00 0.00 0.00 92 1020.6
20260508140904 44 51 0.0 0.0 0.00 0.00 0.00 92 1020.6
20260508140404 44 51 0.0 0.0 0.00 0.00 0.00 92 1020.4
20260508135403 44 51 0.0 0.0 0.00 0.00 0.00 92 1020.2
20260508134903 44 51 0.0 0.0 0.00 0.00 0.00 92 1020.0
20260508134404 44 51 0.0 0.0 0.00 0.00 0.00 92 1019.8
20260508133903 44 51 0.0 0.0 0.00 0.00 0.00 92 1019.7
20260508132904 44 51 0.0 0.0 0.00 0.00 0.00 91 1019.6
20260508132404 44 51 0.0 0.0 0.00 0.00 0.00 91 1019.6
20260508131903 44 51 0.0 0.0 0.00 0.00 0.00 91 1019.4
20260508131404 44 51 0.0 0.0 0.00 0.00 0.00 91 1019.3
20260508130904 45 51 0.0 0.0 0.00 0.00 0.00 91 1019.2
20260508130404 45 51 0.0 0.0 0.00 0.00 0.00 91 1019.1
20260508125904 45 51 0.0 0.0 0.00 0.00 0.00 91 1019.1
20260508125403 45 51 0.0 0.0 0.00 0.00 0.00 91 1019.1
20260508124904 45 51 0.0 0.0 0.00 0.00 0.00 91 1019.0
20260508124403 45 51 0.0 0.0 0.00 0.00 0.00 91 1018.9
20260508123404 45 51 0.0 0.0 0.00 0.00 0.00 91 1018.8
20260508122903 45 51 0.0 0.0 0.00 0.00 0.00 91 1018.8
20260508122404 45 51 0.0 0.0 0.00 0.00 0.00 91 1018.8
20260508121903 45 51 0.0 0.0 0.00 0.00 0.00 91 1018.8
20260508121404 45 51 0.0 0.0 0.00 0.00 0.00 91 1018.7
20260508120904 45 51 0.0 0.0 0.00 0.00 0.00 91 1018.7
20260508120403 45 51 0.0 0.0 0.00 0.00 0.00 91 1018.6
20260508115903 45 51 0.0 0.0 0.00 0.00 0.00 91 1018.6
20260508115404 45 51 0.0 0.0 0.00 0.00 0.00 91 1018.4
20260508114904 45 51 0.0 0.0 0.00 0.00 0.00 91 1018.4
20260508114403 44 51 0.0 0.0 0.00 0.00 0.00 91 1018.4
20260508113905 44 51 0.0 0.0 0.00 0.00 0.00 91 1018.3
20260508113404 44 51 0.0 0.0 0.00 0.00 0.00 91 1018.3
20260508112903 44 51 0.0 0.0 0.00 0.00 0.00 91 1018.1
20260508112404 44 51 0.0 0.0 0.00 0.00 0.00 91 1018.1
20260508111904 44 51 0.0 0.0 0.00 0.00 0.00 91 1018.2
20260508111404 44 51 0.0 0.0 0.00 0.00 0.00 91 1018.0
20260508110404 44 51 0.0 0.0 0.00 0.00 0.00 91 1017.9
20260508105903 44 51 0.0 0.0 0.00 0.00 0.00 91 1017.9
20260508105404 44 51 0.0 0.0 0.00 0.00 0.00 91 1017.9
20260508104904 44 51 0.0 0.0 0.00 0.00 0.00 90 1017.8
20260508104404 45 51 0.0 0.0 0.00 0.00 0.00 90 1017.7
20260508103903 45 51 0.0 0.0 0.00 0.00 0.00 91 1017.7
20260508103403 45 51 0.0 0.0 0.00 0.00 0.00 91 1017.6
20260508102903 45 51 0.0 0.0 0.00 0.00 0.00 91 1017.6
20260508102404 45 51 0.0 0.0 0.00 0.00 0.00 90 1017.5
20260508101904 45 40 0.0 0.0 0.00 0.00 0.00 90 1017.5
20260508101403 45 40 0.0 0.0 0.00 0.00 0.00 90 1017.5
20260508100903 45 40 0.0 0.0 0.00 0.00 0.00 90 1017.4
20260508100403 45 40 0.0 0.0 0.00 0.00 0.00 90 1017.3
20260508095904 45 40 0.0 0.0 0.00 0.00 0.00 90 1017.2
20260508094904 45 40 0.0 0.0 0.00 0.00 0.00 90 1017.3
20260508093904 45 40 0.0 0.0 0.00 0.00 0.00 90 1017.2
20260508093404 45 40 0.0 0.0 0.00 0.00 0.00 90 1017.2
20260508092904 45 40 0.0 0.0 0.00 0.00 0.00 90 1017.1
20260508091903 45 40 0.0 0.0 0.00 0.00 0.00 90 1017.0
20260508091404 45 40 0.0 0.0 0.00 0.00 0.00 89 1017.0
20260508090903 45 40 0.0 0.0 0.00 0.00 0.00 89 1017.0
20260508090404 45 40 0.0 0.0 0.00 0.00 0.00 89 1017.0
20260508085903 45 40 0.0 0.0 0.00 0.00 0.00 89 1016.9
20260508085403 45 40 0.0 0.0 0.00 0.00 0.00 90 1016.9
20260508084904 45 40 0.0 0.0 0.00 0.00 0.00 89 1016.8
20260508084403 45 40 0.0 0.0 0.00 0.00 0.00 89 1016.8
20260508083403 46 40 0.0 0.0 0.00 0.00 0.00 88 1016.8
20260508082904 46 40 0.0 0.0 0.00 0.00 0.00 89 1016.8
20260508082404 46 40 0.0 0.0 0.00 0.00 0.00 88 1016.7
20260508081903 46 40 0.0 0.0 0.00 0.00 0.00 88 1016.7
20260508080904 46 40 0.0 0.0 0.00 0.00 0.00 88 1016.6
20260508080404 46 40 0.0 0.0 0.00 0.00 0.00 88 1016.6
20260508075903 46 40 0.0 0.0 0.00 0.00 0.00 88 1016.5
20260508075403 46 40 0.0 0.0 0.00 0.00 0.00 88 1016.6
20260508074903 46 40 0.0 0.0 0.00 0.00 0.00 88 1016.6
20260508074403 46 40 0.0 0.0 0.00 0.00 0.00 87 1016.6
20260508073402 47 40 0.0 0.0 0.00 0.00 0.00 87 1016.5
20260508072902 47 40 0.0 0.0 0.00 0.00 0.00 87 1016.6
20260508072402 47 40 0.0 0.0 0.00 0.00 0.00 86 1016.5
20260508071902 47 40 0.0 0.0 0.00 0.00 0.00 86 1016.5
20260508071402 47 40 0.0 0.0 0.00 0.00 0.00 85 1016.5
20260508070403 47 40 0.0 0.0 0.00 0.00 0.00 85 1016.6
20260508065902 47 40 0.0 0.0 0.00 0.00 0.00 85 1016.5
20260508065403 47 31 0.0 0.0 0.00 0.00 0.00 85 1016.6
20260508064902 47 31 0.0 0.0 0.00 0.00 0.00 85 1016.5
20260508064403 48 31 0.0 0.0 0.00 0.00 0.00 84 1016.5
20260508063902 48 31 0.0 0.0 0.00 0.00 0.00 84 1016.4
20260508063402 48 31 0.0 0.0 0.00 0.00 0.00 83 1016.4
20260508062403 49 31 0.0 0.0 0.00 0.00 0.00 83 1016.5
20260508060402 49 29 0.0 0.0 0.00 0.00 0.00 83 1016.5
20260508055903 49 29 0.0 0.0 0.00 0.00 0.00 81 1016.4
20260508055403 50 29 0.0 0.0 0.00 0.00 0.00 81 1016.3
20260508054903 50 29 0.0 0.0 0.00 0.00 0.00 80 1016.4
20260508054402 50 29 0.0 0.0 0.00 0.00 0.00 80 1016.5
20260508053902 50 29 0.0 0.0 0.00 0.00 0.00 81 1016.5
20260508053402 50 29 0.0 0.0 0.00 0.00 0.00 81 1016.4
20260508052902 51 29 0.0 0.0 0.00 0.00 0.00 80 1016.4
20260508052403 51 29 0.0 0.0 0.00 0.00 0.00 80 1016.4
20260508051902 51 29 0.0 0.0 0.00 0.00 0.00 79 1016.4
20260508051403 51 29 0.0 0.0 0.00 0.00 0.00 79 1016.4
20260508050903 52 29 0.0 0.0 0.00 0.00 0.00 78 1016.4
20260508050403 52 29 0.0 0.0 0.00 0.00 0.00 78 1016.4
20260508045903 52 29 0.0 0.0 0.00 0.00 0.00 78 1016.4
20260508044902 53 29 0.0 0.0 0.00 0.00 0.00 77 1016.3
20260508044402 53 29 0.0 0.0 0.00 0.00 0.00 77 1016.3
20260508043902 53 29 0.0 0.0 0.00 0.00 0.00 75 1016.3
20260508042902 54 29 0.0 0.0 0.00 0.00 0.00 75 1016.2
20260508042402 54 29 0.0 0.0 0.00 0.00 0.00 74 1016.2
20260508041903 55 29 0.0 0.0 0.00 0.00 0.00 74 1016.2
20260508041403 55 29 0.0 0.0 0.00 0.00 0.00 72 1016.2
20260508040902 56 29 0.0 0.0 0.00 0.00 0.00 72 1016.2
20260508040402 56 29 0.0 0.0 0.00 0.00 0.00 70 1016.1
20260508034903 58 29 0.0 0.0 0.00 0.00 0.00 69 1016.0
20260508034403 58 29 0.0 0.0 0.00 0.00 0.00 67 1015.9
20260508033902 59 29 0.0 0.0 0.00 0.00 0.00 67 1015.8
20260508033402 60 29 0.0 0.0 0.00 0.00 0.00 65 1015.7
20260508032902 60 29 0.0 0.0 0.00 0.00 0.00 63 1015.6
20260508031902 62 29 0.0 0.0 0.00 0.00 0.00 65 1015.6
20260508031403 62 29 0.0 0.0 0.00 0.00 0.00 65 1015.6
20260508030902 62 29 0.0 0.0 0.00 0.00 0.00 64 1015.5
20260508025903 63 29 0.0 0.0 0.00 0.00 0.00 58 1015.6
20260508024903 64 29 0.0 0.0 0.00 0.00 0.00 57 1015.6
20260508024402 65 29 0.0 0.0 0.00 0.00 0.00 55 1015.8
20260508023903 65 29 0.0 0.0 0.00 0.00 0.00 54 1015.7
20260508022902 66 29 0.0 0.0 0.00 0.00 0.00 47 1015.6
20260508022403 67 29 0.0 0.0 0.00 0.00 0.00 45 1015.7
20260508021402 67 38 0.0 1.0 0.00 0.00 0.00 47 1015.7
20260508020903 68 38 0.0 1.0 0.00 0.00 0.00 43 1015.8
20260508020403 68 355 0.0 0.0 0.00 0.00 0.00 43 1015.9
20260508015903 69 355 0.0 2.0 0.00 0.00 0.00 43 1015.9
20260508014903 70 29 1.0 3.0 0.00 0.00 0.00 38 1015.9
20260508014402 70 192 0.0 0.0 0.00 0.00 0.00 39 1015.9
20260508013903 70 195 0.0 0.0 0.00 0.00 0.00 42 1015.9
20260508013403 71 112 0.0 0.0 0.00 0.00 0.00 41 1015.9
20260508012902 71 218 0.0 2.0 0.00 0.00 0.00 38 1016.0
20260508011903 70 348 0.0 0.0 0.00 0.00 0.00 38 1016.0
20260508011403 71 24 0.0 0.0 0.00 0.00 0.00 35 1016.1
20260508010902 71 355 0.0 0.0 0.00 0.00 0.00 39 1016.2
20260508010403 71 251 0.0 0.0 0.00 0.00 0.00 36 1016.1
20260508005904 71 222 0.0 1.0 0.00 0.00 0.00 38 1016.2
20260508004403 70 43 1.0 5.0 0.00 0.00 0.00 33 1016.4
20260508003902 70 38 0.0 5.0 0.00 0.00 0.00 33 1016.4
20260508003402 70 24 0.0 5.0 0.00 0.00 0.00 35 1016.5
20260508002902 70 47 1.0 5.0 0.00 0.00 0.00 36 1016.5
20260508002402 70 165 1.0 5.0 0.00 0.00 0.00 32 1016.5
20260508001403 70 349 0.0 3.0 0.00 0.00 0.00 37 1016.6
20260508000404 69 277 1.0 7.0 0.00 0.00 0.00 34 1016.7
20260507235902 69 39 2.0 7.0 0.00 0.00 0.00 38 1016.7
20260507235402 69 258 2.0 7.0 0.00 0.00 0.00 39 1016.7
20260507234903 69 34 1.0 7.0 0.00 0.00 0.00 37 1016.8
20260507234403 69 261 2.0 7.0 0.00 0.00 0.00 36 1016.9
20260507233903 69 54 2.0 7.0 0.00 0.00 0.00 38 1016.9
20260507233403 69 41 1.0 6.0 0.00 0.00 0.00 38 1017.0
20260507232902 69 14 3.0 6.0 0.00 0.00 0.00 39 1017.0
20260507232402 69 44 2.0 6.0 0.00 0.00 0.00 38 1017.1
20260507230903 69 285 2.0 7.0 0.00 0.00 0.00 39 1017.3
20260507230403 69 206 2.0 7.0 0.00 0.00 0.00 40 1017.3
20260507225903 69 54 1.0 5.0 0.00 0.00 0.00 42 1017.4
20260507225403 69 244 2.0 6.0 0.00 0.00 0.00 46 1017.4
20260507224903 69 69 0.0 6.0 0.00 0.00 0.00 43 1017.4
20260507224403 69 204 1.0 6.0 0.00 0.00 0.00 43 1017.4
20260507223903 69 247 2.0 6.0 0.00 0.00 0.00 43 1017.5
20260507222902 68 29 1.0 8.0 0.00 0.00 0.00 44 1017.7
20260507222403 67 42 1.0 8.0 0.00 0.00 0.00 41 1017.8
20260507221902 68 268 2.0 6.0 0.00 0.00 0.00 44 1017.8
20260507221403 68 239 1.0 3.0 0.00 0.00 0.00 45 1017.8
20260507220902 67 30 0.0 5.0 0.00 0.00 0.00 48 1017.8
20260507220402 67 92 2.0 6.0 0.00 0.00 0.00 51 1017.9
20260507215902 67 35 2.0 6.0 0.00 0.00 0.00 50 1018.0
20260507215403 67 270 1.0 6.0 0.00 0.00 0.00 48 1018.1
20260507214903 66 23 1.0 8.0 0.00 0.00 0.00 51 1018.1
20260507214403 67 51 2.0 8.0 0.00 0.00 0.00 50 1018.2
20260507213902 67 96 1.0 5.0 0.00 0.00 0.00 49 1018.2
20260507213403 67 51 1.0 6.0 0.00 0.00 0.00 50 1018.3
20260507212905 67 50 1.0 6.0 0.00 0.00 0.00 50 1018.3
20260507212403 66 193 0.0 7.0 0.00 0.00 0.00 52 1018.4
20260507211903 66 176 1.0 7.0 0.00 0.00 0.00 49 1018.4
20260507211402 66 16 1.0 6.0 0.00 0.00 0.00 52 1018.4
20260507210402 65 171 3.0 7.0 0.00 0.00 0.00 42 1018.6
20260507205904 65 67 1.0 3.0 0.00 0.00 0.00 45 1018.7
20260507205403 65 186 1.0 3.0 0.00 0.00 0.00 46 1018.8
20260507204402 65 306 1.0 5.0 0.00 0.00 0.00 48 1018.9
20260507203903 65 227 0.0 3.0 0.00 0.00 0.00 49 1018.9
20260507202904 64 339 1.0 6.0 0.00 0.00 0.00 49 1019.0
20260507202403 64 226 2.0 5.0 0.00 0.00 0.00 50 1019.1
20260507201902 64 337 1.0 3.0 0.00 0.00 0.00 52 1019.2
20260507201402 64 309 1.0 5.0 0.00 0.00 0.00 53 1019.2
20260507200903 64 314 1.0 5.0 0.00 0.00 0.00 54 1019.2
20260507195902 64 202 2.0 6.0 0.00 0.00 0.00 55 1019.3
20260507195403 64 248 1.0 7.0 0.00 0.00 0.00 55 1019.4
20260507194903 63 239 2.0 7.0 0.00 0.00 0.00 56 1019.4
20260507193903 63 105 1.0 6.0 0.00 0.00 0.00 53 1019.5
20260507193403 63 302 0.0 6.0 0.00 0.00 0.00 57 1019.6
20260507192902 62 265 1.0 7.0 0.00 0.00 0.00 59 1019.6
20260507192402 62 197 3.0 7.0 0.00 0.00 0.00 63 1019.6